User: anonymous   Login
Location: Valdosta
(30.8330°N, 83.2790°W)
Time: 19:02:19
(UTC-04:00)
Language:

Uribyol 2 - Orbit

View from above orbital plane
View from above orbital plane
View from above satellite
View from above satellite

Ground track
Ground track

The orbit data is extracted from the following two-line orbital elements,

1 22828U 93061F   15088.80771538  .00000350  00000-0  15132-3 0  9995
2 22828 098.6865 038.2958 0010579 138.3651 221.8338 14.30471380 90074
Epoch (UTC): 29 March 2015 19:23:06
Eccentricity: 0.0010579
inclination: 98.6865°
perigee height: 782 km
apogee height: 798 km
right ascension of ascending node: 38.2958°
argument of perigee: 138.3651°
revolutions per day: 14.30471380
mean anomaly at epoch: 221.8338°
orbit number at epoch: 9007

The dashed part of the orbit path shows where the satellite is in the earth's shadow,  

DLR